Location: Caltech
(34.1382°N, 118.1253°W)
Time: 16:12:05
(UTC-07:00)

BREEZE M DEB (TANK) - Visible Passes

Search period start: 30 June 2016 00:00
Search period end: 10 July 2016 00:00
Orbit: 337 x 13710 km, 49.6° (Epoch: 29 June)

Date Brightness Start Highest point End Pass type
(mag) Time Alt. Az. Time Alt. Az. Time Alt. Az.
30 Jun 7.3 00:20:47 10° W 01:20:24 49° N 01:30:44 10° ENE visible
30 Jun 7.9 20:28:30 10° SW 22:27:06 72° NW 22:50:25 10° NE visible
01 Jul 5.7 02:49:56 10° WNW 03:13:55 57° NNE 03:19:30 10° E visible
01 Jul 7.5 23:03:36 10° W 00:26:32 53° NNW 00:39:39 10° ENE visible
02 Jul 4.3 04:51:44 10° NW 05:02:44 43° WSW 05:06:26 10° SSE visible
02 Jul 8.0 19:28:30 10° SW 21:30:31 80° NW 21:59:03 10° NE visible
03 Jul 6.4 01:48:31 10° WNW 02:21:39 52° N 02:28:39 10° E visible
03 Jul 7.6 21:48:56 10° WSW 23:31:53 58° NNW 23:48:28 10° ENE visible
04 Jul 4.3 03:56:37 10° NW 04:12:12 75° SW 04:16:25 10° SE visible
04 Jul 8.1 18:31:28 10° SSW 20:33:12 90° NW 21:07:30 10° NE visible
05 Jul 6.9 00:41:22 10° WNW 01:28:49 50° N 01:37:39 10° E visible
05 Jul 7.8 20:40:35 10° SW 22:36:20 64° NNW 22:57:11 10° ENE visible
06 Jul 4.9 03:00:06 10° NW 03:21:02 77° NE 03:26:00 10° ESE visible
06 Jul 7.2 23:26:53 10° W 00:35:19 51° N 00:46:32 10° ENE visible
07 Jul 5.2 05:00:22 10° WNW 05:07:55 22° WSW 05:11:24 10° SSW visible
07 Jul 7.9 19:37:40 10° SW 21:39:46 72° NW 22:05:48 10° NE visible
08 Jul 5.7 02:01:09 10° WNW 02:29:15 62° NNE 02:35:19 10° ESE visible
08 Jul 7.4 22:09:07 10° W 23:41:00 54° NNW 23:55:19 10° ENE visible
09 Jul 4.6 04:05:09 10° NW 04:18:00 43° WSW 04:22:06 10° SSE visible
09 Jul 8.0 18:38:34 10° SW 20:42:12 80° NW 21:14:15 10° NE visible
